Location: Unspecified
(35.3014°N, 0.0000°E)
Time: 01:13:22
(UTC+00:00)

NANOSAT C BR1 - Visible Passes

Search period start: 04 April 2026 00:00
Search period end: 14 April 2026 00:00
Orbit: 476 x 483 km, 98.1° (Epoch: 29 March)

Date Brightness Start Highest point End Pass type
(mag) Time Alt. Az. Time Alt. Az. Time Alt. Az.
5 Apr ? 19:49:32 10° WSW 19:50:51 12° W 19:52:09 10° WNW visible
6 Apr ? 19:21:23 10° SSW 19:24:23 26° W 19:27:26 10° NW visible
7 Apr ? 18:54:30 10° S 18:58:00 65° WSW 19:01:32 10° NNW visible
9 Apr ? 19:36:03 10° SW 19:38:31 18° W 19:41:00 10° NW visible
10 Apr ? 19:08:37 10° S 19:11:58 41° W 19:15:21 10° NNW visible
12 Apr ? 19:50:51 10° WSW 19:52:19 12° W 19:53:48 10° WNW visible
13 Apr ? 19:22:33 10° SSW 19:25:36 27° W 19:28:41 10° NW visible
